作者wait945 (伟特)
看板ToS
标题[情报] 圣诞老人技能
时间Fri Dec 20 22:21:37 2013
来源
http://tos.hehagame.com/Category_show.php?ide=479
队长技
人类及妖精类攻击2.5倍
主动技
1回合内不能消除火符石,下一回合提升全队1.5倍攻击力
这边的消息来源会比较准确吗??
--
※ 发信站: 批踢踢实业坊(ptt.cc)
◆ From: 123.194.73.46
1F:→ wolfwolf:人类2.5也太OP 12/20 22:22
2F:推 KYO7291:夭寿 三巫游侠有可能起飞? 12/20 22:22
3F:→ iamsocool:御五家飞起来了~~!! 12/20 22:22
4F:嘘 caca5566:主角啊... 12/20 22:22
5F:推 PTTzzZZ:主角飞飞 12/20 22:22
6F:推 moonblack:游侠等很久了 12/20 22:23
7F:推 l1ViE:萨鲁曼表示: 12/20 22:23
8F:推 hank61204:!!!!!!!!!!!!!!!!!!!!!!!!!!!! 12/20 22:23
9F:→ hank61204:好像很神欸!! 12/20 22:23
10F:推 setzer:起飞罗 12/20 22:23
11F:→ choasX:如果是真的就威了! 12/20 22:23
12F:推 LoWind:....快点解放火煮! 12/20 22:23
13F:推 curryhats:火队水瓶? 12/20 22:24
14F:推 cola99t:起飞啦~~~~~ 12/20 22:24
15F:推 luke2:六星五主起飞不知道多久了XD 12/20 22:24
16F:嘘 Lizardon:乾 没练游侠队 12/20 22:24
17F:推 ZSEC:人妖队!! 12/20 22:24
18F:→ gn00452220:人类也起飞了............. 12/20 22:24
19F:推 vedali:人妖人妖~~~~ 12/20 22:24
20F:→ c871111116:木游要正式失业了吗 12/20 22:24
21F:→ wait945:可以组老头妲己队 中间塞游侠御五家@@ 12/20 22:24
22F:推 iamsocool:飞起来昇到太空去了阿 XD 12/20 22:25
23F:→ c871111116:话说这个主动技可否取代火巫的位置? 12/20 22:25
24F:推 xxxz:70000 一只我也会拼@@@@ 12/20 22:25
25F:→ c871111116:毕竟火巫增伤还是有点痛 12/20 22:25
26F:推 ssmark321:空间35地狱级卡,主动技有点不强 12/20 22:25
27F:推 yp60802:超威耶... 12/20 22:25
28F:推 hank61204:人马哭哭 12/20 22:25
29F:→ gn00452220:三巫水瓶老人 伤害会不会突破天际阿 12/20 22:26
30F:嘘 paj12363:如果是真的 三巫就要起飞的 12/20 22:26
31F:推 vance6313:L 圣诞老人 三巫+光游 F 妲己 BJ4 12/20 22:26
32F:推 benlinskyin:人妖队OP 12/20 22:26
33F:→ yp60802:这只配波比好像满好玩XD 12/20 22:26
34F:推 chjimmy:主动技是指火符石不会发动消除吗?还是销到就失效? 12/20 22:26
35F:→ yp60802:失效 12/20 22:26
36F:推 Rindou:6.25人妖队 4.0新主流 强势登场 12/20 22:26
37F:推 curryhats:老头+火游+火煮+火巫+木巫+老头 ? 12/20 22:26
38F:推 Grammy:木游真的完全一点用都没了 12/20 22:27
39F:推 qls:这不是创作吗? 12/20 22:27
40F:→ Lizardon:这主动技是只能用一回合吧 怎麽取代火巫= = 12/20 22:27
41F:推 lu3yao:木游: 喂 过份喔 抢饭碗 12/20 22:27
42F:推 c871111116:但火巫你打後面关卡也不能一直开着啊... 12/20 22:27
43F:→ kangta2030:他妈的超威 还可搭迪蛋 12/20 22:27
44F:→ lu3yao:话说人类不只有三巫 还有三主角啊 比美强权的回复力 12/20 22:27
45F:推 moonblack:楼上不要忘记游侠 12/20 22:28
46F:→ Lizardon:火巫不只增伤还有落珠加成 是要取代啥 12/20 22:28
47F:推 KYO7291:木游 真的要失业了 12/20 22:28
48F:推 dp44:圣诞老人 三巫 火主 +妲己/圣诞老人 12/20 22:29
49F:推 alonelykid:木游表示:你们这群拍狼 12/20 22:29
50F:推 iamsocool:L 老人 三巫 + 五星邓肯 F 老人 我觉得理想阵容 12/20 22:29
51F:推 curryhats:木游还不能消全体 已失业 12/20 22:29
52F:推 Crushredkiss:老人L 三巫 解放五主 老人F QAQ 12/20 22:29
53F:推 zxlt3722:圣诞老人+三主角+木巫+妲己 伤害与回覆兼具组合 12/20 22:29
54F:推 xxxz:妲己 二巫 暗主 随意 老头 ...人妖全吃。 12/20 22:29
55F:推 luke2:放火队就强迫你断印啊 除非你没放火希 12/20 22:30
56F:推 yandrew:原来就是要用这队杂色农7封阿 我真的打太快了...zzz 12/20 22:30
57F:推 j056237:不觉得老人配妲己超OP的吗? 12/20 22:31
58F:推 gary360:而且这三围看起应该不错 12/20 22:32
59F:推 hank61204:靠...我人马该不会要失业了吧 快拼到满等了欸 12/20 22:32
60F:→ cola99t:楼上:我今天刚满等.... 12/20 22:32
61F:推 katsumoto:XD 如果是真的话,下几周暗加倍搞不好就来妲己加倍回收 12/20 22:32
62F:推 shinobilin:木游:干 12/20 22:32
63F:推 vance6313:人马应该不会 可以配到神族 12/20 22:32
64F:推 dp44:老头 水火巫 火主 三太子+ 妲己! 12/20 22:32
65F:推 miayao417:母哈哈 哥解放了3主了 爽 12/20 22:32
66F:→ katsumoto:这次活动没回收到的石头阿 (暗黑中) 12/20 22:32
67F:→ gn00452220:人马主动计打单体还是很强的 12/20 22:33
68F:推 andy3580:这只放火或另组人类队都蛮强的 12/20 22:33
69F:推 rollen:不是三巫起飞,都已经在飞了,现在要冲破大气层了 12/20 22:34
70F:推 peter2354600:人马怎麽会失业,这个队长技只有对人妖有效 12/20 22:34
71F:推 chenchunjui:放火? 你没看清楚? 12/20 22:34
72F:推 ayabf:设计给火巫 火主 三太子的吧!!差第五人了 12/20 22:34
73F:推 RogueKnight:耶三巫满等爽 12/20 22:34
74F:推 GLHF:人妖队... 12/20 22:34
75F:→ catstupid:单体来看,人马还是比较高 12/20 22:34
76F:推 hank61204:是说她二点五倍完全没副作用也太爽= =" 12/20 22:34
77F:推 zxp86218:老人妖队 12/20 22:34
78F:推 acopika:人类四主队 五主回复力组队加成 高伤爆发+6.25op 12/20 22:34
79F:推 QJP0518:人马队队员一堆人类啊 XDDD 12/20 22:35
80F:→ ayabf:放火队让你开三太子後技能好排珠阿! 火珠不能消 12/20 22:35
81F:推 Crushredkiss:消到火就没有1.5倍的意思吗 12/20 22:35
82F:→ peter2354600:也是啦XDDD 不过人马可以配神族就是了 12/20 22:35
83F:→ acopika:牛王被鸭王抢走队长 现在连组妖精的饭碗都丢了 12/20 22:35
84F:→ gary360:是消都不能消 12/20 22:36
85F:→ jinkela1:牛王:我都没特异功能了 还留在这里惹人嫌吗 12/20 22:36
86F:推 train60125:老人(L)+三主角+暗蛋+妲己(F) 有伤害有回复有控场 12/20 22:37
87F:→ wwwsamyoui12:这样就叫起飞...? 12/20 22:37
88F:推 hhpsjoe:火巫 火主 三太子 火蛋OR迪亚布罗? 12/20 22:37
89F:推 dp44:我觉得是7封王那种的 12/20 22:37
90F:推 bookticket:其实怕消到火珠 可以空转就好 12/20 22:37
91F:推 rabbit50331:塞一只水史莱姆完美解决火符石 12/20 22:37
92F:推 snowcs:这个起始三围,练满应该接近北欧神 12/20 22:37
93F:推 losestimmy:人妖队 12/20 22:38
94F:推 chenchunjui:可以开个三巫加成200%吗 好难抽~~ 12/20 22:38
95F:推 trymore:三巫满等...赞... 12/20 22:38
96F:→ ruj9vul3:我五主缺肖恩 三巫缺火巫(泪 12/20 22:38
97F:推 ariasonata:龙队泪推 12/20 22:38
98F:推 gary360:不能消除火珠的意思是:就算连到三颗火珠 也会放在那里不消 12/20 22:38
99F:推 funnyboy1104:三巫也满等了... 老公公发威了... 12/20 22:39
100F:→ gary360:比照七封王 12/20 22:39
101F:推 charles4483:键盘组队 老人 木巫 水游 安多 暗蛋 妲己 12/20 22:40
102F:推 comesome:感觉是消到就当做失败 12/20 22:40
103F:推 chenchunjui:满技最多CD10 而且一等那三围 队员再放一只都OK 12/20 22:40
104F:推 whalefirst:只有一回合可用?? 12/20 22:40
105F:推 five5six6:老人主动技+妲己U转+解放五主 OP... 12/20 22:41
106F:→ jinkela1:觉得消到火石当失败论比较合理 也较考验玩家技巧 12/20 22:42
107F:→ jinkela1:不然火队排珠变的太无脑 12/20 22:42
108F:→ shinobilin:姜还是老的辣 12/20 22:42
109F:推 HMKRL:老人四主妲己队,回复力媲美强权啊 12/20 22:42
110F:推 q43128:耶,我的三巫中於可以开始练技能了 12/20 22:42
111F:推 QJP0518:消到会失效就直接转1C不然空转就好 12/20 22:43
112F:→ gary360:我敢说是不会消~像打七封王那样 12/20 22:43
113F:推 GoodElephant:人类队!! 木游侠要失业了吗? 12/20 22:45
114F:推 snowcs:老实说就是强化版木游(还不限种族),主动技能增1.5倍还不 12/20 22:45
115F:→ snowcs:错,人类妖精爆发技能有限,大概就是三巫+解放五主+妲己U 12/20 22:45
116F:→ snowcs:转 12/20 22:45
117F:推 Sawyer80:感觉配合波比应该会很强 12/20 22:45
118F:推 vance6313:这技能跟妲己 主角超搭 先放圣诞 妲己U排 下回合解放开 12/20 22:46
119F:→ libramog:会有队伍技能吗? 本来以为会跟小精灵是一伙的 12/20 22:46
120F:→ vance6313:扁 12/20 22:46
121F:推 suuigche21:火希跟圣诞老公公八字不合? 12/20 22:48
122F:推 obafgkm:所以安多解放另两只随意吗 12/20 22:49
123F:推 sam87070:三巫队,吼吼吼~~~~ 12/20 22:49
124F:推 waveking:人马+三巫+火主+老人op啊 12/20 22:49
125F:推 kyle77616:我也觉得应该是不能消到,不然真的太无脑了,除非是写无 12/20 22:50
126F:→ kyle77616:法消除。 12/20 22:50
127F:推 cfs:抱怨七封的人呢 @@ ? 如果技能为真 不觉得你们抱怨太急吗 12/20 22:50
128F:推 justsay:七封难跟新卡有啥关系 还是你打到就能拿它速破七封? 12/20 22:51
129F:→ kyle77616:人马是神吧@@ 12/20 22:51
130F:→ cfs:至少好打不少吧 高回高攻代表 也没人说一定要秒破呀... 12/20 22:52
131F:推 d93782529:不知道两只老公公的主动技能不能叠 12/20 22:53
132F:推 justsay:高攻高回还不是得面对R1恶意地精 12/20 22:53
133F:推 Terminator99:爽,游侠队正式起飞 12/20 22:55
134F:推 chenchunjui:人类队的血量 地精更容易秒巴 12/20 22:55
135F:推 waveking:只是要人马的追打而已 12/20 22:55
136F:嘘 DearDaniel:cfs有何问题??? 不管这情报真假 七封的地精跟这有关系? 12/20 22:55
137F:→ cfs:大家不就要求0石通关而已...好像每场都双地精 12/20 22:56
138F:推 OyAlbert:妈阿,搭个根性的配巫女根本就飞到不知哪去了? 12/20 22:56
139F:推 aberladada:杂色不不卡珠秒他就好ler (理想面 12/20 22:57
141F:→ patrol:应该有削弱过 主动技能有点无力... 12/20 22:57
142F:→ huangin:不过如果用圣诞老人组三巫五主杂色...确实就不怕双地精 12/20 22:58
143F:推 justsay:抱怨七封不就在说小怪恶意跟堆叠数据 看不出新卡有何转机 12/20 22:58
144F:→ patrol:血够撑住双地精连击吗... 12/20 22:59
145F:→ cfs:6.25攻的确是满有希望直接秒地精呀 12/20 22:59
146F:→ Ethric:史王强权串5心就过了(?) 12/20 22:59
147F:→ DearDaniel:进场两只木地精 一样难打啦 爱钓鱼又没本事zzz 12/20 23:00
148F:推 aberladada:组妲己拉全体5C一色不要木应该就可以KO火地精惹 12/20 23:00
149F:推 squall304:我也觉得杂色队不卡珠 要秒双地精不难 12/20 23:00
150F:→ cfs:阿不就每场都双CD1地精... 12/20 23:00
151F:推 jimmy3137:人妖队起飞啦 !!!! 12/20 23:00
152F:→ DearDaniel:那这样每场都杂色老人 乐趣又在那zz 12/20 23:01
153F:→ aberladada:农肥求稳就好吧 (in火关木关的话 12/20 23:01
155F:→ aberladada:光暗水应该还是可以纯色轰 12/20 23:02
156F:→ cfs:懒人包 : 1R就遇到CD1地精且主属珠不足珠情况约只有1/50 12/20 23:02
157F:推 lai97:人妖队 正式登场 12/20 23:02
158F:→ focustage:Cfs等你po圣诞老人七封心得 千万不要用石抽卡喔 12/20 23:02
159F:→ cfs:我有说我不用石抽卡吗...都到七封了还没石抽卡也是很强 12/20 23:03
160F:→ aberladada:我用游侠就可以打火7-1了 只是要蛮专心的就是了... 12/20 23:03
161F:→ cfs:我说七封有老人(如果技能为真) 目前看来是好过不少 12/20 23:04
162F:推 focustage:所以不懂你在说什 没三巫七封会变简单 12/20 23:04
163F:推 ayabf:喔 这只原来是七封救世主喔? 想必某大大已经试用过这只了 12/20 23:05
164F:→ cfs:就我的感觉是 变化变多 游戏应该能撑更久吧 12/20 23:05
165F:→ cfs:主角呢... 游侠呢? 我是觉得会满有希望啦 12/20 23:05
166F:推 aberladada:组个老公公主角队伤害就潮猛的了 12/20 23:06
167F:推 dixongossip:老人 三巫 海拉 老人 (如果有王是CD3的话XD) 12/20 23:06
168F:→ cfs:人类不是只有三巫吧... 12/20 23:07
169F:→ cfs:不过水7-3那种靠北关卡倒是其次啦= = 我也是打一次先放弃 12/20 23:08
170F:→ justsay:当然这支不弱 只是谈"有趣"的话我是觉得没啥新意 12/20 23:08
171F:推 WindowsXP:如果技满是CD5的话..... 12/20 23:08
172F:嘘 j3526147j:到底人马还是老人好啦 囧 三巫已犹豫 12/20 23:08
173F:→ Ethric:但体力需求高达25.所以你每进入七封一次.系统偷走你自动回 12/20 23:08
174F:→ Ethric:复5分钟的体力 12/20 23:09
175F:→ cfs:当然没解决体力问题呀... 我只说变好打耶 如果很care体力 12/20 23:10
176F:→ cfs:可以等体半看看 12/20 23:10
177F:推 j3526147j:补 12/20 23:10
178F:推 cfs:三主角还有隐藏回覆 很看好这队呀 12/20 23:12
179F:推 whalefirst:三主角好难抽 还没抽过主角 12/20 23:12
181F:推 permoon:人马不可能失业,除非圣诞老人三围op到逆天 12/20 23:14
182F:推 tomatoo:cfs 主角隐藏回复能详细一下吗? 12/20 23:15
183F:→ permoon:否则以主动技来看,人马还是好用一点 12/20 23:15
184F:→ permoon:而队长技则见仁见智,人马只能打单体但可吃所有种族 12/20 23:15
185F:→ permoon:光是人马三巫搭水妹or狮子就很难被取代了 12/20 23:16
186F:推 cfs:三主角有类似游侠那种加成 回复1.3倍 4主角1.4 12/20 23:16
187F:推 whalefirst:kuso的不要点 广告 12/20 23:16
188F:→ foreverk:其实缺点应该就是血量了 12/20 23:17
189F:嘘 ncueBenson:kuso2005 12/20 23:18
190F:推 teddying:说真的 转珠技巧有点高 自认不行 会叠的话真的超威 12/20 23:20
191F:推 whalefirst:kuso2005的连结不要点 可以水桶他嘛 12/20 23:21
192F:→ kuso2005:猎人合作全图监和地下城,有兴趣的可以跳坑 12/20 23:23
193F:→ chenchunjui:... 12/20 23:24
194F:→ jinkela1:有蜘蛛旅团耶(误 12/20 23:25
195F:→ jinkela1:说真的 桶一桶吧 12/20 23:26
196F:推 g29050:宣传这个是哪招 12/20 23:26
197F:→ foreverk:就闹版啊 12/20 23:27
198F:→ ffaatt:要跳也是跳出去 还有什麽动力玩一样的游戏 12/20 23:28
199F:推 kess:人+妖 2.5攻击感觉过强 12/20 23:29
200F:→ hn85017889:如果队长技真的这样,那我已经搭好了就萨肥,三巫 12/20 23:30
201F:推 tim201227:这是甚麽鬼卡 下周比我把缺的木巫也抽起来吗= = 12/20 23:34
202F:推 drajan:人类起飞...环绕地球一圈了 人妖队真的太可怕 12/20 23:34
203F:推 lu3yao:还有修正余地啦 这队长技出来会取代掉太多人 应该不至於(吧 12/20 23:34
204F:→ lu3yao:人&妖两倍这样就正常多了 12/20 23:35
205F:→ drajan:老人+妲己 中间搭三巫&肖恩 U转一波流超杀 12/20 23:35
206F:→ lu3yao:另外还有转珠转到死队: 老人 三主 糜鹿 妲己 12/20 23:36
207F:→ foreverk:还是有缺点啊,人妖队永远的痛:强化盾 12/20 23:38
208F:推 RaiGend0519:人妖队...太扯了 12/20 23:40
209F:推 goodsnk:太夸张了 12/20 23:40
210F:→ whisky520:哪个队伍没缺点..什麽话 12/20 23:40
211F:推 bookticket:强化盾? 放只大史就解决了~ 12/20 23:41
212F:→ foreverk:所以我是在说他有缺点,没有强到取代很多人的地步啊 12/20 23:41
213F:→ foreverk:放大史你血量会很难看 12/20 23:42
214F:→ bookticket:人+妖 就能放大史 就能解决强化盾的问题拉XD 12/20 23:42
215F:→ foreverk:而且放大地精配大树才对吧 12/20 23:42
216F:→ bookticket:圣诞老人的血够多可以cover了 尤其双圣诞老人时~ 12/20 23:43
217F:→ bookticket:圣诞老人+三巫or三主 +大史+ 圣诞老人 12/20 23:43
218F:→ foreverk:你排看看就知道了 12/20 23:44
219F:→ foreverk:大史是跑出强化心珠,是要干嘛啦 12/20 23:45
220F:推 cfs:旧五主快出来救援!!! 12/20 23:45
221F:→ wait945:放大史是为了转掉火珠吗? 12/20 23:46
222F:推 bookticket:刚打错 有强化盾问题 阵容应该改成: 12/20 23:48
223F:→ bookticket:圣诞老人+火巫+三太子+任一只 +大史+ 圣诞老人 12/20 23:49
224F:→ bookticket:大史先木转强心 三太子强心转火 就破掉强化盾了 12/20 23:50
225F:→ wait945:变6.25火队了 12/20 23:50
226F:→ bookticket:大史虽然血少 但整个队伍基本上还是有一万二up的血量 12/20 23:51
227F:→ foreverk:你讲的阵容放六星火主,老人hp假设是刚刚推测的2600,血 12/20 23:52
228F:→ foreverk:只有一万三而已 12/20 23:52
229F:→ bookticket:基本上只是为了强化盾而特化出来的队伍 平常当然不必这 12/20 23:52
230F:→ bookticket:样组阿XD 12/20 23:52
231F:推 whalefirst:大史要去哪打/ 12/20 23:52
232F:推 potato6202:然後被七封的地精打死了 12/20 23:52
233F:→ wait945:大史要自己养大 中史打6封 12/20 23:53
234F:→ foreverk:这是要全满等阵容,有强化盾的场合要解就要面临低血量 12/20 23:53
235F:推 AndFly:问一下 主角回复加乘吃的到水巫吗 12/20 23:53
236F:→ whalefirst:那有小史嘛 ? 30级的史莱姆? 12/20 23:53
237F:→ foreverk:所以说是缺点啊 12/20 23:53
238F:推 thekfc24:木游失业倒数… 12/20 23:53
239F:→ bookticket:血量一万三 虽然比不上双北双澳丁 但也算够用了~ 12/20 23:53
240F:→ wait945:圣诞老人+火巫+三太子+火主+大史+圣诞老人<-变火队了@@ 12/20 23:54
241F:推 gjmanhaha:主角的可以吃到水巫,异界龙的也可以 12/20 23:54
242F:→ bookticket:七封平常没强化盾的关 又没人叫你组这队去打XD 12/20 23:54
243F:→ foreverk:一万三别说七封,其他地方都不是说太稳的血量了,恢复很 12/20 23:55
244F:→ foreverk:高是没错,但是人类血量一直都不多啊 12/20 23:55
245F:→ gjmanhaha:火人妖队起飞XDD 新队伍出现啦,6.25火人妖队!!! 12/20 23:55
246F:推 andy3580:1万3的血很够了 1万5的血还不是被地精秒杀 没屁用 12/20 23:56
247F:→ bookticket:就说了阿 这是为了强化盾才特化的队伍 平常又不用放大 12/20 23:56
248F:→ gjmanhaha:7封无视他吧,我组三奥的队伍卡珠还是掰掰XD 地精:呵呵~ 12/20 23:56
249F:→ bookticket:史~ 12/20 23:56
250F:推 cacasi:还好我都用木游组妹子们刷肥,不影响... 12/20 23:57
251F:→ foreverk:不放大史他一样是个满等血偏低的队伍,我不知道争这点 12/20 23:57
252F:→ andy3580:玩家的血量跟本追不上怪的功击 乾脆直接放弃血量 12/20 23:57
253F:→ foreverk:干嘛 12/20 23:58
254F:推 AndFly:那老人 水火暗三主 水巫 妲己应该打很痛 12/20 23:58
255F:→ bookticket:没强化盾的问题 大史地位址就改放大树 大树的主动技 12/20 23:58
256F:→ andy3580:全部追求火力 12/20 23:58
257F:→ gjmanhaha:同意,除了先攻盾以外,血量已经快要不是考量的点了 12/20 23:58
258F:→ bookticket:可以转出心珠 可以保命 或要放其他脚色也无不可~ 12/20 23:58
259F:→ patrol:如果满等回复5xx 二朱雀二波比二圣诞加权回复力有4400+ !! 12/20 23:59
260F:→ bookticket:血量低本来就不是重点阿 先提出血量低的好像不是我@@ 12/20 23:59
261F:→ bookticket:而且我觉得底多说是不高而以 还不算是很低@@ 12/21 00:00
262F:推 cacasi:而且这张卡屁股跟奥丁一样大,等级不够的还是人马木游好用 12/21 00:01
263F:→ patrol:五主回复加成应该没这麽威吧? 所以还是火强权神卡? 12/21 00:02
264F:→ bookticket:人马应该不至於到失业拉~人马还可以组杂色的神魔队 12/21 00:02
265F:→ andy3580:我破7封外围就用两队 安妲跟史王 血量都不足14000 12/21 00:02
266F:→ foreverk:改放大树变一万五好一点没错啦,只是没大树的就... 12/21 00:03
267F:→ andy3580:除了水7-3无解外都可0石 12/21 00:03
268F:→ bookticket:但木游真的就被抢工作抢得很心酸就是了orz 12/21 00:03
269F:推 gjmanhaha:五主回复加成3只就1.3了耶,相当於每只都接近500了 12/21 00:05
270F:→ foreverk:本来就只是说人妖队有血量偏低+强化盾的缺点啊 12/21 00:05
271F:→ gjmanhaha:配上水巫 攻击力硬生生多了将近1200 还不够好吗? = = 12/21 00:05
272F:→ foreverk:加上其他种种情况,没有到取代很多人的地步 12/21 00:06
273F:推 andy3580:人马在三巫杂色队的地位凭这张卡是取代不了的 12/21 00:06
274F:推 SAYYA:2.5… 人类要起飞啦 12/21 00:06
275F:推 ra21844:人类的意志!! 12/21 00:06
276F:推 AndFly:对啊 老人 水火暗主 水巫 妲己 可以水火暗三连暴 12/21 00:06
277F:→ andy3580:双圣诞加三巫的爆发倍率 输人马输的很惨 又要等一回合 12/21 00:07
278F:→ gjmanhaha:现在的卡还是跟7封扯不太上边啦,血量只有奥丁才能克服 12/21 00:07
279F:→ gjmanhaha:强化顿这点也没啥好提的,除了希腊跟有双子的洛妲其他队 12/21 00:08
280F:→ andy3580:这张卡拿去配游侠跟主角吧 看能不能生出新的强队 12/21 00:08
281F:→ foreverk:就是人妖配多新玩法而已 12/21 00:08
282F:→ gjmanhaha:还不是都会有一样的问题,双北奥也是要等cd到才能开阿 12/21 00:08
283F:→ foreverk:纯色队至少有北欧可解吧 12/21 00:09
284F:推 gjmanhaha:现在强化盾关卡少得可怜,除了奥丁以外的关卡也没几关 12/21 00:10
285F:推 y35246357468:队长技!!!!!!!! 可怜的木游XDDDD 12/21 00:11
286F:→ gjmanhaha:整个7封+地狱级也没有几关强化盾的关卡,不用太紧张 12/21 00:11
287F:→ gjmanhaha:7封是一个你称血到极致(双光游)或是高回到极致(强权) 12/21 00:13
288F:→ foreverk:就和游侠兽队一样的问题,如果技术高超能转珠解我没意见 12/21 00:13
289F:→ gjmanhaha:就可以顺利的摩过的关卡,除了少数讲求爆发外都可以过 12/21 00:13
290F:→ gjmanhaha:而且就跟没人想不开拿双光游去打砍%数的王一样,真遇到 12/21 00:14
291F:→ gjmanhaha:强化盾关卡换队打就好了阿,也不用圣诞老公公玩到底吧.. 12/21 00:15
292F:→ foreverk:所以我说"这队"缺点是强化盾啊 没人说要圣诞老人玩到底 12/21 00:16
293F:→ foreverk:我不懂这跟说"希腊缺点是COMBO盾"有甚麽不一样 12/21 00:16
294F:推 chenchunjui:强化盾只要预存强珠 遇到妲己还不是跪下 12/21 00:18
295F:→ gjmanhaha:这缺点对很多队都是缺点啦,现在都只是讨论阶段而已 12/21 00:19
296F:推 lkk0752:队长技OP 但这主动技值得嗑石去拼积分拿MAX吗 12/21 00:19
297F:→ gjmanhaha:而且很明显这队除了大史能产强珠外,还有啥办法? 12/21 00:20
298F:→ foreverk:看他满技多少,CD5当然打 12/21 00:20
299F:→ gjmanhaha:一直提强化盾是缺点真的没啥必要的,有眼睛都看得出来 12/21 00:20
300F:→ foreverk:有吗,一堆人不是在上面讲可以无视,血量一万三也不是问 12/21 00:22
301F:→ foreverk:题,卡是很强没错,要说取代很多人就算了吧 12/21 00:22
302F:→ gjmanhaha:至少这张卡不会太烂,让组合更灵活就够了,取代看个人 12/21 00:24
303F:→ foreverk:我没说他烂啊,我只是说个血量跟强化珠变现在这样,我哪 12/21 00:25
304F:→ foreverk:知道怎麽回事lol 12/21 00:25
305F:→ foreverk:至少现在的积分门槛可以让中新手入个公会就拿到卡,之後 12/21 00:27
306F:→ foreverk:练等就能有王卡用,光这点就值得 12/21 00:27
307F:推 luke2:其实你可以找圣诞老人配人马 12/21 00:30
308F:→ gjmanhaha:我猜是因为大家一头热,然後你泼了一点冷水吧,阿灾 12/21 00:30
309F:推 luke2:c神这麽会打七封怎麽不PO一篇心得文来造福版众 12/21 00:34
310F:→ edshen:大麦克跟钓鱼哥认真了 12/21 01:12
311F:→ ianencored:安安几岁住哪 12/21 01:36
312F:推 GAIEGAIE:这太扯了吧 12/21 01:38
313F:推 kuo3027:乾之前的蛋要发出圣光了嘛 12/21 01:44
314F:推 eternalwrath:.......... 根本不给木游活路阿 XDDD 12/21 01:54
315F:推 rainbow52034:哈… 12/21 02:15
316F:推 t4103m973:我感觉背包守护神木巨像在呼叫我了 12/21 02:17
317F:推 macjohn03:木游掰 12/21 02:24
318F:推 kyo547896321:人妖队!!!! 12/21 02:30
319F:嘘 BruceChien:老人 老人 火巫 三太子 肖恩 老人 ,怒嘘想红的人类XD 12/21 08:18
320F:→ eimmsert:哈斯 老人我来了 12/21 08:32
321F:推 shaojun:人类:I believe I can FLY!!! 12/21 09:57
322F:→ kevin810:老人该不会一个人最多只能拿到1~2张吧 12/21 11:23